Weather History for Danbury, CT

Change the Weather History Date:

Thursday, December 7, 2000

  Actual Average Record
Temperature  
Mean Temperature 24 °F -  
Max Temperature 30 °F 44 °F 73 °F (1998)
Min Temperature 18 °F 26 °F 3 °F (1964)
Degree Days  
Heating Degree Days 40    
Moisture  
Dew Point 10 °F    
Average Humidity 53    
Maximum Humidity 74    
Minimum Humidity 38    
Precipitation  
Precipitation 0.00 in - - ()
Sea Level Pressure  
Sea Level Pressure 29.88 in    
Wind  
Wind Speed 6 mph (West)    
Max Wind Speed 16 mph    
Max Gust Speed 23 mph    
Visibility 10 miles    
Events      
Averages and records for this station are not official NWS values.
T = Trace of Precipitation, MM = Missing Value Source: NWS Daily Summary

Daily Weather History Graph

Daily Weather History Graph

Search for Another Location

Airport:

Trip Planner

Search our weather history database for the weather conditions in past years. The results will help you decide how hot, cold, wet, or windy it might be!

Date:

Astronomy

Dec. 07, 2000 Rise Set
Actual Time 7:06 AM EST 4:24 PM EST
Civil Twilight 6:35 AM EST 4:55 PM EST
Nautical Twilight 6:01 AM EST 5:30 PM EST
Astronomical Twilight 5:27 AM EST 6:03 PM EST
Moon 2:19 PM EST (12/7) 2:30 AM EST (12/7)
Length of Visible Light 10h 19m
Length of Day
9h 17m
Waxing Gibbous, 83% of the Moon is Illuminated
Dec 7
Waxing Gibbous
Dec 11
Full
Dec 17
Last Quarter
Dec 25
New
Jan 2
First Quarter

Hourly Weather History & Observations

Time (EST) Temp. Windchill Dew Point Humidity Pressure Visibility Wind Dir Wind Speed Gust Speed Precip Events Conditions
12:53 AM 19.0 °F 13.9 °F 10.9 °F 71% 29.90 in 10.0 mi West 3.5 mph - N/A   Clear
1:53 AM 23.0 °F 18.4 °F 10.9 °F 60% 29.89 in 10.0 mi WSW 3.5 mph - N/A   Overcast
2:53 AM 24.1 °F 17.0 °F 10.0 °F 55% 29.87 in 10.0 mi SW 5.8 mph - N/A   Mostly Cloudy
3:53 AM 24.1 °F 18.2 °F 10.9 °F 57% 29.86 in 10.0 mi WSW 4.6 mph - N/A   Overcast
4:53 AM 25.0 °F 15.5 °F 10.9 °F 55% 29.82 in 10.0 mi SW 9.2 mph - N/A   Overcast
5:53 AM 25.0 °F 16.3 °F 10.9 °F 55% 29.82 in 10.0 mi WSW 8.1 mph - N/A   Overcast
6:53 AM 25.0 °F 15.5 °F 12.0 °F 58% 29.82 in 10.0 mi WSW 9.2 mph - N/A   Mostly Cloudy
7:53 AM 25.0 °F 19.3 °F 12.0 °F 58% 29.82 in 10.0 mi Variable 4.6 mph - N/A   Scattered Clouds
8:53 AM 26.1 °F 17.6 °F 14.0 °F 60% 29.82 in 10.0 mi West 8.1 mph - N/A   Mostly Cloudy
9:53 AM 28.0 °F 19.3 °F 14.0 °F 56% 29.82 in 10.0 mi West 9.2 mph - N/A   Partly Cloudy
10:53 AM 28.0 °F 16.1 °F 12.9 °F 53% 29.82 in 10.0 mi WNW 16.1 mph 20.7 mph N/A   Clear
11:53 AM 30.0 °F 21.1 °F 12.9 °F 49% 29.81 in 10.0 mi West 10.4 mph 20.7 mph N/A   Scattered Clouds
12:53 PM 30.9 °F 22.8 °F 10.0 °F 42% 29.80 in 10.0 mi NW 9.2 mph 21.9 mph N/A   Overcast
1:53 PM 28.9 °F 18.6 °F 9.0 °F 43% 29.81 in 10.0 mi WNW 12.7 mph 19.6 mph N/A   Partly Cloudy
2:53 PM 30.9 °F 21.2 °F 8.1 °F 38% 29.84 in 10.0 mi West 12.7 mph 20.7 mph N/A   Partly Cloudy
3:53 PM 28.0 °F 19.3 °F 6.1 °F 39% 29.87 in 10.0 mi WNW 9.2 mph 23.0 mph N/A   Clear
4:53 PM 27.0 °F 20.5 °F 5.0 °F 39% 29.89 in 10.0 mi Variable 5.8 mph - N/A   Clear
5:53 PM 27.0 °F 19.5 °F 6.1 °F 41% 29.93 in 10.0 mi WNW 6.9 mph - N/A   Clear
6:53 PM 25.0 °F 19.3 °F 5.0 °F 43% 29.96 in 10.0 mi WNW 4.6 mph - N/A   Clear
7:53 PM 24.1 °F 18.2 °F 5.0 °F 44% 29.97 in 10.0 mi WNW 4.6 mph - N/A   Clear
8:53 PM 21.9 °F - 6.1 °F 51% 30.00 in 10.0 mi Calm Calm - N/A   Clear
9:53 PM 19.0 °F - 9.0 °F 65% 30.00 in 10.0 mi Calm Calm - N/A   Clear
10:53 PM 19.0 °F 13.9 °F 10.0 °F 68% 30.03 in 10.0 mi WSW 3.5 mph - N/A   Clear
11:53 PM 18.0 °F - 10.9 °F 74% 30.04 in 10.0 mi Calm Calm - N/A   Overcast